Retour au catalogue

FENGYUN 1C DEB

ActifSSO
NORAD 29876·DEBRIS·🇨🇳 China

Lancé May 10, 1999 depuis Taiyuan Satellite Launch Center

Loading…

Prochains Passages (prochaines 24 heures)

TLE

FraisSource: Space-Track

Époque: Sep 14, 2026, 09:30 UTC

1 29876U 99025FW  26257.39643703  .00000133  00000-0  79681-4 0  9996
2 29876  98.2969 296.5376 0059990 293.0145 134.5186 14.20451612 18295

Suivez FENGYUN 1C DEB en temps réel avec AllMySat

Download on the App Store